Regional Weather Roundup
Issued by NWS

Home | Current Version | Previous Version | Text Only | Print | Product List | Glossary Off
Versions: 1 2 3 4 5 6 7 8 9 10 11 12 13 14 15 16 17 18 19 20 21 22 23 24 25 26 27 28 29 30 31 32 33 34 35 36 37 38 39 40 41 42 43 44 45 46 47 48 49 50

000
ASUS45 KABQ 250201
RWRNM
NEW MEXICO REGIONAL WEATHER ROUNDUP
NATIONAL WEATHER SERVICE ALBUQUERQUE NM
700 PM MST SAT FEB 24 2018

NOTE: "FAIR" MEANS FEW OR NO CLOUDS BELOW 12,000 FEET AGL WITH NO
       SIGNIFICANT WEATHER OR OBSTRUCTIONS TO VISION.

      THIS PRODUCT IS RELEASED AS TWO VERSIONS.  ONE VERSION NEAR
      THE TOP OF THE HOUR CONTAINING PRELIMINARY DATA FROM ALBUQUERQUE
      AND OTHER STATIONS.  A FINAL VERSION WITH ADDITIONAL DATA IS
      ISSUED ABOUT 10 MINUTES AFTER THE HOUR.

NMZ501-503-504-510>518-250300-
NORTHWEST PLATEAU/NORTHCENTRAL MOUNTAINS

CITY           SKY/WX    TMP DP  RH WIND       PRES   REMARKS
FARMINGTON     FAIR      31   5  33 N3        29.95F
LOS ALAMOS     FAIR      29   4  34 S9G22     29.97S WCI  21
SANTA FE       FAIR      27   6  41 W3        29.97R
TAOS           FAIR      26   5  40 W13       29.98R WCI  15
ANGEL FIRE     FAIR      19   3  49 W23G29    29.91S WCI   2

$$
NMZ402-403-502-505>509-250300-
WESTCENTRAL MOUNTAINS/SOUTHWEST MOUNTAINS

CITY           SKY/WX    TMP DP  RH WIND       PRES   REMARKS
GALLUP         FAIR      28  10  46 S5        30.01R WCI  23
GRANTS         FAIR      30  11  45 SW6       30.03S WCI  24
SILVER CITY    FAIR      38   8  28 W5        30.06S WCI  35

$$
NMZ407-409-411-412-250300-
SOUTHERN DESERTS

CITY           SKY/WX    TMP DP  RH WIND       PRES   REMARKS
DEMING         FAIR      45   6  20 W14       30.06R
LAS CRUCES     FAIR      46   8  21 SW13      30.06R
HOLLOMAN AFB   FAIR      44   8  22 SE6       30.06S
ALAMOGORDO     FAIR      43   5  21 S3        30.05S
T OR C         FAIR      47   8  20 CALM      30.00R

$$
NMZ519>523-250300-
CENTRAL VALLEYS/CENTRAL HIGHLANDS

CITY           SKY/WX    TMP DP  RH WIND       PRES   REMARKS
ALBUQUERQUE    FAIR      39   8  27 W10       30.01R WCI  32
DOUBLE EAGLE   CLEAR     34   7  32 SW10      30.01R WCI  26
MORIARTY ARPT  FAIR      33   6  31 W6        30.00R WCI  28
CLINES CORNERS FAIR      26   4  38 W13       29.96F WCI  15
BELEN          FAIR      33   4  29 W8        30.02S WCI  27
SOCORRO        FAIR      40   4  22 E5        30.02R

$$
NMZ524>526-539-540-250300-
SOUTHCENTRAL MOUNTAINS

CITY           SKY/WX    TMP DP  RH WIND       PRES   REMARKS
RUIDOSO        FAIR      32  -4  21 W10       30.02S WCI  24

$$
NMZ527>531-250300-
NORTHEAST HIGHLANDS/NORTHEAST PLAINS

CITY           SKY/WX    TMP DP  RH WIND       PRES   REMARKS
LAS VEGAS      FAIR      28   2  32 SW9       29.91R WCI  19
RATON          FAIR      29  -7  20 SW14G21   29.83R WCI  18
CLAYTON        FAIR      34  -9  15 W9        29.85R WCI  27

$$
NMZ532>537-250300-
EASTCENTRAL PLAINS

CITY           SKY/WX    TMP DP  RH WIND       PRES   REMARKS
SANTA ROSA     FAIR      39   0  19 W14       29.95R WCI  31
TUCUMCARI      FAIR      44   1  16 W15       29.89R
CANNON AFB     FAIR      42  -2  15 W9        29.97R
CLOVIS AIRPORT FAIR      34   0  23 SW13      29.96R WCI  25

$$
NMZ028-029-538-250300-
SOUTHEAST PLAINS

CITY           SKY/WX    TMP DP  RH WIND       PRES   REMARKS
ROSWELL        FAIR      48   5  17 NW6       29.98R
ARTESIA        FAIR      45   7  21 SE8       30.01R
CARLSBAD       FAIR      48   1  14 SW10      30.00R
HOBBS          FAIR      43   1  17 N8        30.01R


$$




USA.gov is the U.S. government's official web portal to all federal, state and local government web resources and services.